Simultaneous Nadir Overpasses (SNOs) Predictions

Prediction of SNOs between NOAA-20 and NOAA-19 Satellite Orbit:

Table of predicted SNOs for the next 14.0 days since TLE Epoch: 1/3/2020
Index Date (NOAA-20) Time (NOAA-20) Lat,Lon (NOAA-20) SZA (NOAA-20 ) Date (NOAA-19) Time (NOAA-19) Lat,Lon (NOAA-19) SZA (NOAA-19 ) Distance(km) Time Diff (sec)
1 01/09/2020 15:41:18 79.64, -90.91 103.71 01/09/2020 15:40:07 79.65, -91.01 103.76 2.13 71
2 01/09/2020 16:32:03 -79.65, 76.32 76.28 01/09/2020 16:31:03 -79.64, 76.19 76.25 2.88 60
3 01/09/2020 17:22:48 79.64,-116.30 103.71 01/09/2020 17:22:07 79.67,-116.30 103.75 2.84 41
4 01/09/2020 18:13:33 -79.65, 50.94 76.29 01/09/2020 18:13:03 -79.66, 50.89 76.26 1.38 30
5 01/09/2020 19:04:19 79.68,-141.97 103.75 01/09/2020 19:04:08 79.66,-141.89 103.74 2.33 11
6 01/09/2020 19:55:03 -79.65, 25.55 76.30 01/09/2020 19:55:03 -79.68, 25.60 76.28 3.12 0
7 01/09/2020 20:45:49 79.68,-167.36 103.75 01/09/2020 20:46:08 79.68,-167.19 103.72 3.31 19
8 01/09/2020 21:36:34 -79.69, -0.12 76.25 01/09/2020 21:37:04 -79.67, 0.01 76.29 3.00 30
9 01/09/2020 22:27:19 79.68, 167.26 103.74 01/09/2020 22:28:09 79.67, 167.22 103.72 1.24 50
10 01/09/2020 23:18:04 -79.69, -25.51 76.25 01/09/2020 23:19:05 -79.66, -25.58 76.29 3.04 61




NCC Satellite Simultaneous Nadir Overpasses (SNOs) Prediction Service
